Home > Weather > Voronezh > Past weeks

Flag for Russia Past Weather in Voronezh, Russia — Yesterday and Last 2 Weeks

Now
66 °F

Scattered clouds.


Feels Like: 66 °F
Forecast: 60 / 76 °F
Wind: 8 mph from Northeast

Location: Voronez

Current Time: Aug 25, 2016 at 7:43:28 AM

Latest Report: Aug 25, 2016 at 7:00 AM


Visibility: N/A

Pressure: 29.89 "Hg

Humidity: 73%

Dew Point: 57 °F

Location of VoronezhLocation

Past Weather in Voronezh — Graph

°F

Voronezh Temperature Yesterday

Maximum temperature yesterday: 86 °F (at 1:30 PM)
Minimum temperature yesterday: 59 °F (at 3:30 AM)
Average temperature yesterday: 73 °F

High & Low Weather Summary for the Past Weeks

 TemperatureHumidityPressure
High90 °F (Aug 22, 3:00 PM)100% (Aug 19, 8:30 PM)30.18 "Hg (Aug 19, 8:30 PM)
Low55 °F (Aug 10, 6:00 AM)24% (Aug 23, 4:00 PM)29.65 "Hg (Aug 15, 3:30 AM)
Average70 °F68%29.99 "Hg
* Reported Aug 10 6:00 AM — Aug 25 6:00 AM, Voronezh, Weather by CustomWeather, © 2016

Note: Actual official high and low records may vary slightly from our data, if they occured in-between our weather recording intervals... More about our weather records

Advertising

Voronezh Weather History for the Previous 24 Hours

Scroll right to see more
 ConditionsComfort  
Time TempWeatherWind HumidityBarometerVisibility
6:00 AM
Thu, Aug 25
66 °FScattered clouds.3 mph68%29.89 "HgN/A
5:30 AM64 °FScattered clouds.6 mph73%29.86 "HgN/A
5:00 AM66 °FPassing clouds.3 mph68%29.89 "HgN/A
4:30 AM68 °FPassing clouds.3 mph60%29.89 "HgN/A
4:00 AM66 °FClear.6 mph68%29.89 "Hg10 mi
3:30 AM68 °FClear.3 mph64%29.89 "Hg10 mi
3:00 AM66 °FClear.3 mph68%29.89 "Hg10 mi
2:00 AM66 °FClear.3 mph68%29.89 "Hg10 mi
1:30 AM68 °FClear.No wind64%29.89 "Hg10 mi
1:00 AM68 °FClear.No wind64%29.89 "Hg10 mi
12:30 AM68 °FClear.6 mph64%29.89 "Hg10 mi
12:00 AM68 °FClear.3 mph64%29.89 "Hg10 mi
11:30 PM
Wed, Aug 24
66 °FClear.No wind73%29.89 "Hg10 mi
11:00 PM66 °FClear.No wind73%29.89 "Hg10 mi
10:30 PM68 °FClear.No wind69%29.92 "Hg10 mi
10:00 PM70 °FClear.No wind64%29.92 "Hg10 mi
9:30 PM70 °FClear.No wind64%29.92 "Hg10 mi
9:00 PM70 °FClear.No wind60%29.92 "Hg10 mi
8:30 PM72 °FClear.No wind57%29.92 "Hg10 mi
8:00 PM72 °FClear.1 mph61%29.92 "Hg10 mi
7:30 PM75 °FClear.No wind50%29.92 "Hg10 mi
7:00 PM75 °FSunny.6 mph50%29.92 "Hg10 mi
6:30 PM75 °FClear.6 mph54%29.92 "Hg6 mi
6:00 PM79 °FSunny.3 mph48%29.92 "Hg10 mi
5:30 PM82 °FSunny.6 mph37%29.95 "Hg10 mi
5:00 PM81 °FSunny.1 mph42%29.95 "Hg10 mi
4:30 PM82 °FSunny.No wind40%29.95 "Hg10 mi
4:00 PM84 °FSunny.6 mph27%29.95 "Hg10 mi
3:30 PM86 °FSunny.8 mph25%29.95 "Hg10 mi
3:00 PM86 °FSunny.8 mph27%29.95 "Hg10 mi
2:30 PM86 °FSunny.10 mph24%29.98 "Hg10 mi
2:00 PM86 °FSunny.10 mph27%29.98 "Hg10 mi
1:30 PM86 °FSunny.13 mph25%29.98 "Hg10 mi
1:00 PM82 °FSunny.8 mph32%29.98 "Hg10 mi
12:30 PM82 °FSunny.8 mph32%29.98 "Hg10 mi
12:00 PM84 °FSunny.10 mph29%30.01 "Hg10 mi
11:30 AM82 °FSunny.10 mph32%30.01 "Hg10 mi
11:00 AM81 °FSunny.10 mph37%30.01 "Hg10 mi
10:30 AM77 °FSunny.10 mph44%30.04 "Hg10 mi
10:00 AM79 °FSunny.8 mph39%30.04 "Hg10 mi
9:30 AM77 °FSunny.8 mph39%30.04 "Hg10 mi
9:00 AM73 °FSunny.6 mph50%30.04 "Hg10 mi
8:30 AM72 °FSunny.8 mph53%30.04 "Hg10 mi
8:00 AM72 °FSunny.8 mph47%30.04 "Hg10 mi
7:30 AM70 °FSunny.6 mph53%30.04 "Hg10 mi
7:00 AM66 °FSunny.1 mph60%30.04 "Hg10 mi
Weather by CustomWeather, © 2016

See weather overviewHow to use our weather pages